Home   Weather   Bardufoss   Past weeks

Flag for Norway Past Weather in Bardufoss, Norway — Yesterday and Last 2 Weeks

Now
-9 °F

Frigid.


Feels Like: -9 °F
Forecast: 10 / 22 °F
Wind: No wind

Location: Bardufoss

Current Time: Dec 3, 2016 at 1:26:16 am

Latest Report: Dec 3, 2016 at 12:50 am


Visibility: N/A

Pressure: 30.01 "Hg

Humidity: 84%

Dew Point: -13 °F

Location of BardufossLocation

Past Weather in Bardufoss — Graph

°F

Bardufoss Temperature Yesterday

Maximum temperature yesterday: 16 °F (at 12:20 am)
Minimum temperature yesterday: -8 °F (at 9:50 pm)
Average temperature yesterday: 6 °F

High & Low Weather Summary for the Past Weeks

 TemperatureHumidityPressure
High39 °F (Nov 18, 10:50 pm)100% (Nov 22, 12:50 am)30.07 "Hg (Nov 22, 12:50 am)
Low-8 °F (Dec 2, 9:50 pm)56% (Nov 18, 7:50 pm)29.00 "Hg (Nov 30, 5:20 am)
Average23 °F89%29.56 "Hg
* Reported Nov 17 11:20 pm — Dec 2 11:50 pm, Bardufoss, Weather by CustomWeather, © 2016

Note: Actual official high and low records may vary slightly from our data, if they occured in-between our weather recording intervals... More about our weather records

Advertising

Bardufoss Weather History for the Previous 24 Hours

Scroll right to see more
 ConditionsComfort  
Time TempWeatherWind HumidityBarometerVisibility
11:50 pm
Fri, Dec 2
-8 °FFrigid.No wind84%30.01 "HgN/A
11:20 pm-8 °FFrigid.No wind92%30.01 "HgN/A
10:50 pm-8 °FPassing clouds.1 mph84%30.01 "HgN/A
9:50 pm-8 °FPassing clouds.No wind84%30.01 "HgN/A
8:50 pm-6 °FPassing clouds.1 mph84%29.98 "HgN/A
7:50 pm-6 °FPassing clouds.1 mph92%29.98 "HgN/A
6:50 pm-6 °FPassing clouds.2 mph84%29.98 "HgN/A
6:20 pm-2 °FPassing clouds.1 mph84%29.98 "HgN/A
5:50 pm-2 °FPassing clouds.1 mph92%29.98 "HgN/A
5:20 pm-2 °FPassing clouds.No wind84%29.98 "HgN/A
4:50 pm0 °FPassing clouds.No wind92%29.95 "HgN/A
4:20 pm1 °FPassing clouds.2 mph85%29.95 "HgN/A
3:50 pm3 °FPassing clouds.1 mph92%29.95 "HgN/A
3:20 pm3 °FPassing clouds.No wind85%29.95 "HgN/A
2:50 pm3 °FPassing clouds.No wind85%29.92 "HgN/A
2:20 pm7 °FPassing clouds.No wind92%29.92 "HgN/A
1:50 pm9 °FPassing clouds.1 mph92%29.92 "HgN/A
1:20 pm10 °FScattered clouds.No wind92%29.92 "HgN/A
12:50 pm10 °FLight mixture of precip. Partly sunny.No wind92%29.92 "HgN/A
12:20 pm10 °FLight mixture of precip. Partly sunny.1 mph92%29.92 "HgN/A
11:50 am10 °FLight mixture of precip. Broken clouds.No wind92%29.92 "HgN/A
11:20 am10 °FLight mixture of precip. Broken clouds.2 mph92%29.89 "HgN/A
10:50 am9 °FLight mixture of precip. Broken clouds.No wind92%29.89 "HgN/A
10:20 am10 °FPartly sunny.No wind85%29.89 "HgN/A
9:50 am10 °FPartly sunny.2 mph92%29.89 "HgN/A
9:20 am10 °FPartly sunny.2 mph92%29.89 "HgN/A
8:50 am9 °FBroken clouds.No wind92%29.89 "HgN/A
8:20 am7 °FBroken clouds.2 mph92%29.86 "HgN/A
7:50 am9 °FScattered clouds.5 mph92%29.86 "HgN/A
7:20 am9 °FScattered clouds.2 mph92%29.86 "HgN/A
6:50 am10 °FScattered clouds.No wind92%29.86 "HgN/A
6:20 am10 °FBroken clouds.No wind92%29.83 "HgN/A
5:50 am12 °FPassing clouds.2 mph92%29.83 "HgN/A
5:20 am10 °FPassing clouds.2 mph92%29.83 "HgN/A
4:50 am9 °FPassing clouds.2 mph92%29.83 "HgN/A
4:20 am10 °FPassing clouds.3 mph85%29.80 "HgN/A
3:50 am10 °FPassing clouds.No wind92%29.80 "HgN/A
3:20 am9 °FPassing clouds.1 mph100%29.80 "HgN/A
2:50 am10 °FPassing clouds.No wind92%29.80 "HgN/A
2:20 am12 °FCold.No wind92%29.77 "HgN/A
1:50 am14 °FCold.1 mph92%29.77 "HgN/A
1:20 am16 °FCold.2 mph93%29.74 "HgN/A
Weather by CustomWeather, © 2016

See weather overviewHow to use our weather pages